Volver al catálogo

STARLINK-32516

ActivoComunicacionesVLEO
NORAD 62176·PAYLOAD·🇺🇸 United States

Lanzado Nov 30, 2024 desde Vandenberg Space Force Base

Loading…

Próximos Pases (próximas 24 horas)

TLE

ActualizadoSource: CelesTrak SupGP

Época: Sep 14, 2026, 22:33 UTC

1 62176C 24225P   26257.94006944 -.00059802  00000+0 -50120-2 0  2577
2 62176  70.0012  47.3885 0003107 274.5533 324.4315 14.98358064    10

Sigue STARLINK-32516 en tiempo real con AllMySat

Download on the App Store